,Output(kWh),Demand(kWh),Import(kWh),Export(kWh),HW(kWh),HWPV(kWh),Output(kWh/d),Demand(kWh/d),Import(kWh/d),Export(kWh/d),HW(kWh/d),HWPV(kWh/d)
09/12/2015,0.002,0,0,0.002,0,0,0.002,0,0,0.002,0,0
10/12/2015,3.566,2.488,1.193,2.271,1.134,0.785,3.564,2.488,1.193,2.269,1.134,0.785
11/12/2015,11.74,10.04,5.637,7.336,3.44,2.483,8.174,7.552,4.444,5.065,2.306,1.698
12/12/2015,19.69,18.98,11.5,12.22,5.85,4.178,7.95,8.94,5.863,4.884,2.41,1.695
13/12/2015,27.44,27.68,17.29,17.04,8.13,5.757,7.75,8.7,5.79,4.82,2.28,1.579
14/12/2015,35.3,35.68,22.4,22,10.48,7.412,7.86,8,5.11,4.96,2.35,1.655
15/12/2015,43.23,43.63,27.43,27.02,12.89,9.123,7.93,7.95,5.03,5.02,2.41,1.711
16/12/2015,50.86,50.57,31.61,31.9,15.33,10.86,7.63,6.94,4.18,4.88,2.44,1.737
17/12/2015,58.82,55.49,33.84,37.19,17.91,12.75,7.96,4.92,2.23,5.29,2.58,1.89
18/12/2015,66.83,61.75,37.32,42.44,20.54,14.7,8.01,6.26,3.48,5.25,2.63,1.95
19/12/2015,74.94,68.79,41.48,47.67,23.19,16.67,8.11,7.04,4.16,5.23,2.65,1.97
20/12/2015,83.23,76.01,45.82,53.09,25.99,18.74,8.29,7.22,4.34,5.42,2.8,2.07
21/12/2015,91.52,83.05,49.95,58.44,28.68,20.73,8.29,7.04,4.13,5.35,2.69,1.99
22/12/2015,99.31,90.23,54.41,63.48,31.21,22.55,7.79,7.18,4.46,5.04,2.53,1.82
23/12/2015,106.96,96.84,58.45,68.54,33.89,24.58,7.65,6.61,4.04,5.06,2.68,2.03
24/12/2015,115.37,103.55,62.2,73.95,36.68,26.7,8.41,6.71,3.75,5.41,2.79,2.12
25/12/2015,123.48,111.1,66.92,79.2,39.38,28.7,8.11,7.55,4.72,5.25,2.7,2
26/12/2015,131.04,119.07,72.18,84.04,41.9,30.47,7.56,7.97,5.26,4.84,2.52,1.77
27/12/2015,138.76,128.53,78.8,88.87,44.33,32.28,7.72,9.46,6.62,4.83,2.43,1.81
28/12/2015,146.11,136.8,84.44,93.59,46.84,34.13,7.35,8.27,5.64,4.72,2.51,1.85
29/12/2015,154.38,142.17,87.08,99.12,49.77,36.41,8.27,5.37,2.64,5.53,2.93,2.28
30/12/2015,162.51,148.01,90.29,104.61,53.05,39.02,8.13,5.84,3.21,5.49,3.28,2.61
31/12/2015,170.23,154.04,93.83,109.82,55.83,41.13,7.72,6.03,3.54,5.21,2.78,2.11
01/01/2016,178.59,160.92,97.71,115.14,59.15,43.75,8.36,6.88,3.88,5.32,3.32,2.62
02/01/2016,186.46,167.83,101.98,120.33,61.83,45.69,7.87,6.91,4.27,5.19,2.68,1.94
03/01/2016,194.1,174.61,106.27,125.46,64.65,47.8,7.64,6.78,4.29,5.13,2.82,2.11
04/01/2016,201.68,181.1,110.33,130.59,67.39,49.85,7.58,6.49,4.06,5.13,2.74,2.05
05/01/2016,210.02,187.9,114.33,136.1,70.42,52.2,8.34,6.8,4,5.51,3.03,2.35
06/01/2016,218.25,192.92,116.86,141.82,73.54,54.66,8.23,5.02,2.53,5.72,3.12,2.46
07/01/2016,226,199.63,120.98,146.97,76.28,56.76,7.75,6.71,4.12,5.15,2.74,2.1
08/01/2016,234.17,204.91,123.75,152.59,79.69,59.56,8.17,5.28,2.77,5.62,3.41,2.8
09/01/2016,242.45,211.64,127.62,157.99,82.86,62.08,8.28,6.73,3.87,5.4,3.17,2.52
10/01/2016,250.2,217.16,130.77,163.34,85.62,64.19,7.75,5.52,3.15,5.35,2.76,2.11
11/01/2016,258.43,223.55,134.35,168.75,88.89,66.81,8.23,6.39,3.58,5.41,3.27,2.62
12/01/2016,266.69,229.53,137.52,174.19,92.02,69.32,8.26,5.98,3.17,5.44,3.13,2.51
13/01/2016,274.67,235.24,140.74,179.64,94.77,71.44,7.98,5.71,3.22,5.45,2.75,2.12
14/01/2016,283.33,241.98,144.44,185.24,97.76,73.79,8.66,6.74,3.7,5.6,2.99,2.35
15/01/2016,291.51,249.22,148.84,190.54,100.4,75.78,8.18,7.24,4.4,5.3,2.64,1.99
16/01/2016,299.79,256.35,152.92,195.75,103.07,77.79,8.28,7.13,4.08,5.21,2.67,2.01
17/01/2016,308.56,264.58,157.75,201.13,106.21,80.28,8.77,8.23,4.83,5.38,3.14,2.49
18/01/2016,316.4,269.55,160.24,206.51,108.74,82.22,7.84,4.97,2.49,5.38,2.53,1.94
19/01/2016,324.56,275.1,163.06,211.94,111.46,84.35,8.16,5.55,2.82,5.43,2.72,2.13
20/01/2016,333.11,282.69,167.34,217.2,114.46,86.74,8.55,7.59,4.28,5.26,3,2.39
21/01/2016,341.78,294.95,175.72,222,117.49,89.13,8.67,12.26,8.38,4.8,3.03,2.39
22/01/2016,350.38,302.58,180.12,227.37,120.39,91.49,8.6,7.63,4.4,5.37,2.9,2.36
23/01/2016,358.38,310.3,184.9,232.53,122.92,93.46,8,7.72,4.78,5.16,2.53,1.97
24/01/2016,366.7,316.29,188.19,238.15,125.81,95.82,8.32,5.99,3.29,5.62,2.89,2.36
25/01/2016,374.76,323.14,192.38,243.58,129.08,98.63,8.06,6.85,4.19,5.43,3.27,2.81
26/01/2016,382.85,328.63,195.52,249.31,132.54,101.64,8.09,5.49,3.14,5.73,3.46,3.01
27/01/2016,390.78,334.6,198.92,254.71,135.2,103.77,7.93,5.97,3.4,5.4,2.66,2.13
28/01/2016,398.18,339.88,202.05,259.96,138.07,106.18,7.4,5.28,3.13,5.25,2.87,2.41
29/01/2016,404.67,345.79,204.92,263.42,139.98,107.91,6.49,5.91,2.87,3.46,1.91,1.73
30/01/2016,406.81,348.34,206.54,264.63,140.91,108.84,2.14,2.55,1.62,1.21,0.93,0.93
31/01/2016,411.09,352.61,208.05,266.17,142.89,110.79,4.28,4.27,1.51,1.54,1.98,1.95
01/02/2016,413.29,356.06,210.15,267.07,144.01,111.9,2.2,3.45,2.1,0.9,1.12,1.11
02/02/2016,415.7,358.89,211.99,268.51,145.15,113.03,2.41,2.83,1.84,1.44,1.14,1.13
03/02/2016,421.05,364.87,214.27,270.23,147.65,115.49,5.35,5.98,2.28,1.72,2.5,2.46
04/02/2016,424.28,370.85,217.79,271.16,148.98,116.78,3.23,5.98,3.52,0.93,1.33,1.29
05/02/2016,426.77,376.24,221.51,272.09,149.85,117.63,2.49,5.39,3.72,0.93,0.87,0.85
06/02/2016,429.21,380.36,224.05,273.08,150.79,118.56,2.44,4.12,2.54,0.99,0.94,0.93
07/02/2016,431.33,383.89,226.17,273.92,151.63,119.38,2.12,3.53,2.12,0.84,0.84,0.82
08/02/2016,436.05,388.84,228.19,275.78,154.21,121.88,4.72,4.95,2.02,1.86,2.58,2.5
09/02/2016,439.02,392.51,230.19,277.15,155.39,123.03,2.97,3.67,2,1.37,1.18,1.15
10/02/2016,444.31,398.2,232.44,279.07,158.19,125.83,5.29,5.69,2.25,1.92,2.8,2.8
11/02/2016,447.18,405.16,237.53,280.18,159.36,126.96,2.87,6.96,5.09,1.11,1.17,1.13
12/02/2016,454.17,411.62,239.52,282.77,161.5,129.06,6.99,6.46,1.99,2.59,2.14,2.1
13/02/2016,457.81,416.64,241.82,283.78,162.76,130.27,3.64,5.02,2.3,1.01,1.26,1.21
14/02/2016,459.94,423.15,246.84,284.63,164.3,130.65,2.13,6.51,5.02,0.85,1.54,0.38
15/02/2016,464.68,429.17,249.23,285.83,167.04,133.37,4.74,6.02,2.39,1.2,2.74,2.72
16/02/2016,470.52,438.9,253.83,286.67,170.02,136.28,5.84,9.73,4.6,0.84,2.98,2.91
17/02/2016,478.4,448.11,256.84,288.52,172.98,139.18,7.88,9.21,3.01,1.85,2.96,2.9
18/02/2016,480.98,453.8,260.37,289.12,173.33,139.53,2.58,5.69,3.53,0.6,0.35,0.35
19/02/2016,488.38,459.88,260.94,291.04,177.01,143.14,7.4,6.08,0.57,1.92,3.68,3.61
20/02/2016,494.31,466.76,262.99,292.2,179.64,145.7,5.93,6.88,2.05,1.16,2.63,2.56
21/02/2016,497.37,471.58,265.65,293.13,180.46,146.5,3.06,4.82,2.66,0.93,0.82,0.8
22/02/2016,500.82,475.55,267.28,294.28,181.85,147.87,3.45,3.97,1.63,1.15,1.39,1.37
23/02/2016,504.68,481.11,269.98,295.31,183.19,149.2,3.86,5.56,2.7,1.03,1.34,1.33
24/02/2016,510.85,490.36,273.69,296.08,186.03,151.96,6.17,9.25,3.71,0.77,2.84,2.76
25/02/2016,518.57,500.61,277.56,297.62,188.88,154.76,7.72,10.25,3.87,1.54,2.85,2.8
26/02/2016,524.98,509.78,281.3,298.8,191.91,157.72,6.41,9.17,3.74,1.18,3.03,2.96
27/02/2016,530.76,519,285.38,299.63,194.5,160.29,5.78,9.22,4.08,0.83,2.59,2.57
28/02/2016,534.04,528.42,291.83,300.13,196.33,160.89,3.28,9.42,6.45,0.5,1.83,0.6
29/02/2016,539.11,537.37,296.43,301.03,198.32,162.86,5.07,8.95,4.6,0.9,1.99,1.97
01/03/2016,545.8,546.78,300.14,302.16,201.87,165.8,6.69,9.41,3.71,1.13,3.55,2.94
02/03/2016,548.61,551.19,302.48,303.05,202.42,166.33,2.81,4.41,2.34,0.89,0.55,0.53
03/03/2016,553.13,558.65,306.2,303.95,203.95,167.82,4.52,7.46,3.72,0.9,1.53,1.49
04/03/2016,558.31,565.72,309,304.99,205.8,169.63,5.18,7.07,2.8,1.04,1.85,1.81
05/03/2016,566.99,575.52,312.13,307.12,209.33,173.08,8.68,9.8,3.13,2.13,3.53,3.45
06/03/2016,570.19,584.88,318.93,307.82,211.18,173.78,3.2,9.36,6.8,0.7,1.85,0.7
07/03/2016,574.59,592.84,323.2,308.64,213,175.58,4.4,7.96,4.27,0.82,1.82,1.8
08/03/2016,583.06,603.61,327.42,310.74,216.78,179.24,8.47,10.77,4.22,2.1,3.78,3.66
09/03/2016,587.59,611.5,331.53,311.57,218.08,180.51,4.53,7.89,4.11,0.83,1.3,1.27
10/03/2016,591.18,617.02,334.09,312.49,218.89,181.3,3.59,5.52,2.56,0.92,0.81,0.79
11/03/2016,594.17,623.3,337.97,313.41,220.64,181.91,2.99,6.28,3.88,0.92,1.75,0.61
12/03/2016,603.49,633.04,340.63,315.57,224.12,185.32,9.32,9.74,2.66,2.16,3.48,3.41
13/03/2016,610.92,641.9,343.72,316.64,227.11,188.27,7.43,8.86,3.09,1.07,2.99,2.95
14/03/2016,621.15,651.6,346.5,319.52,230.7,191.8,10.23,9.7,2.78,2.88,3.59,3.53
15/03/2016,633,662.49,349.49,322.88,234.5,195.5,11.85,10.89,2.99,3.36,3.8,3.7
16/03/2016,637.33,668.78,352.83,323.69,235.11,196.1,4.33,6.29,3.34,0.81,0.61,0.6
17/03/2016,644.01,678.71,357.73,324.64,238.7,198.47,6.68,9.93,4.9,0.95,3.59,2.37
18/03/2016,655.51,688.02,359.99,328.51,242.32,202.07,11.5,9.31,2.26,3.87,3.62,3.6
19/03/2016,658.92,694.09,363.89,329.09,242.49,202.22,3.41,6.07,3.9,0.58,0.17,0.15
20/03/2016,663.09,700.18,367.33,329.89,243.27,202.98,4.17,6.09,3.44,0.8,0.78,0.76
21/03/2016,667.72,704.16,368.24,330.91,244.52,204.2,4.63,3.98,0.91,1.02,1.25,1.22
22/03/2016,674.42,710.99,370.09,331.99,247.02,206.66,6.7,6.83,1.85,1.08,2.5,2.46
23/03/2016,685.29,720.47,372.13,334.81,250.75,210.33,10.87,9.48,2.04,2.82,3.73,3.67
24/03/2016,689.93,726.81,375.4,335.69,251.6,211.17,4.64,6.34,3.27,0.88,0.85,0.84
25/03/2016,694.7,733.28,378.66,336.65,253.7,212.22,4.77,6.47,3.26,0.96,2.1,1.05
26/03/2016,706.3,744.61,382.25,339.98,257.85,216.26,11.6,11.33,3.59,3.33,4.15,4.04
27/03/2016,709.7,749.37,384.93,340.76,258.07,216.49,3.4,4.76,2.68,0.78,0.22,0.23
28/03/2016,717.56,759.47,388.87,341.93,261.48,219.76,7.86,10.1,3.94,1.17,3.41,3.27
29/03/2016,726.28,769.1,392.12,343.65,265.25,223.34,8.72,9.63,3.25,1.72,3.77,3.58
30/03/2016,733.52,778.45,395.76,344.65,268.34,226.32,7.24,9.35,3.64,1,3.09,2.98
31/03/2016,743.29,787.86,398.73,347.37,272.04,229.95,9.77,9.41,2.97,2.72,3.7,3.63
01/04/2016,753.62,797.93,401.74,350.04,275.87,233.7,10.33,10.07,3.01,2.67,3.83,3.75
02/04/2016,762.98,807.47,404.64,352.21,279.93,237.66,9.36,9.54,2.9,2.17,4.06,3.96
03/04/2016,774.02,817.54,407.94,355.87,282.82,240.53,11.04,10.07,3.3,3.66,2.89,2.87
04/04/2016,781.92,826.79,411.46,357.49,285.88,243.56,7.9,9.25,3.52,1.62,3.06,3.03
05/04/2016,788.79,835.2,414.76,358.61,288.51,246.15,6.87,8.41,3.3,1.12,2.63,2.59
06/04/2016,799.14,845.78,418.68,361.75,292.15,249.71,10.35,10.58,3.92,3.14,3.64,3.56
07/04/2016,807.45,855.77,422.29,363.1,295.34,252.82,8.31,9.99,3.61,1.35,3.19,3.11
08/04/2016,813.18,862,424.48,364.25,297.25,254.71,5.73,6.23,2.19,1.15,1.91,1.89
09/04/2016,821.52,870.49,427.05,366.12,300.86,258.28,8.34,8.49,2.57,1.87,3.61,3.57
10/04/2016,830.24,880.56,430.43,367.6,304.49,261.82,8.72,10.07,3.38,1.48,3.63,3.54
11/04/2016,841.22,891.65,433.6,370.13,308.31,265.55,10.98,11.09,3.17,2.53,3.82,3.73
12/04/2016,846.92,900.3,438.19,371.12,311.24,267.33,5.7,8.65,4.59,0.99,2.93,1.78
13/04/2016,859.4,910.44,440.56,375.3,315.28,271.27,12.48,10.14,2.37,4.18,4.04,3.94
14/04/2016,870.57,919.22,442.56,379.1,319.33,275.31,11.17,8.78,2,3.8,4.05,4.04
15/04/2016,880.83,929.64,445.92,381.7,323.16,279.09,10.26,10.42,3.36,2.6,3.83,3.78
16/04/2016,885.65,935.94,448.83,382.62,324.05,280.01,4.82,6.3,2.91,0.92,0.89,0.92
17/04/2016,892.67,943.81,451.33,383.73,327.06,282.99,7.02,7.87,2.5,1.11,3.01,2.98
18/04/2016,904.54,954.26,455.28,388.48,330.16,286.06,11.87,10.45,3.95,4.75,3.1,3.07
19/04/2016,911.57,963.37,459.06,389.65,332.89,288.77,7.03,9.11,3.78,1.17,2.73,2.71
20/04/2016,922.8,973.69,462.11,393.02,336.02,291.85,11.23,10.32,3.05,3.37,3.13,3.08
21/04/2016,937.67,985.38,464.78,398.25,339.03,294.83,14.87,11.69,2.67,5.23,3.01,2.98
22/04/2016,947.66,995.97,468.22,400.62,343.66,298.36,9.99,10.59,3.44,2.37,4.63,3.53
23/04/2016,952.42,1002,470.92,401.59,344.63,299.3,4.76,6.03,2.7,0.97,0.97,0.94
24/04/2016,963.35,1012,473.59,404.62,348.51,303.09,10.93,10,2.67,3.03,3.88,3.79
25/04/2016,972.13,1021,476.44,406.39,351.85,306.36,8.78,9,2.85,1.77,3.34,3.27
26/04/2016,978.4,1031,481.48,407.42,354.96,308.28,6.27,10,5.04,1.03,3.11,1.92
27/04/2016,990.73,1042,484.3,411.32,358.89,312.05,12.33,11,2.82,3.9,3.93,3.77
28/04/2016,1004,1052,487.02,416.81,362.08,315.19,13.27,10,2.72,5.49,3.19,3.14
29/04/2016,1015,1061,489.63,420.44,365.69,318.58,11,9,2.61,3.63,3.61,3.39
30/04/2016,1027,1071,492.09,424.97,369.67,322.48,12,10,2.46,4.53,3.98,3.9
01/05/2016,1039,1080,494.09,429.37,373.28,326.02,12,9,2,4.4,3.61,3.54
02/05/2016,1053,1092,497.61,434.35,376.6,329.23,14,12,3.52,4.98,3.32,3.21
03/05/2016,1061,1103,503.16,436.66,380.08,331.55,8,11,5.55,2.31,3.48,2.32
04/05/2016,1073,1113,505.81,439.8,383.6,334.99,12,10,2.65,3.14,3.52,3.44
05/05/2016,1088,1125,508.17,445.34,387.41,338.76,15,12,2.36,5.54,3.81,3.77
06/05/2016,1103,1135,510.08,451.43,390.66,341.99,15,10,1.91,6.09,3.25,3.23
07/05/2016,1115,1143,511.45,455.5,394.42,345.71,12,8,1.37,4.07,3.76,3.72
08/05/2016,1125,1152,514.16,459.8,398.12,349.38,10,9,2.71,4.3,3.7,3.67
09/05/2016,1139,1163,516.54,464.67,401.77,353,14,11,2.38,4.87,3.65,3.62
10/05/2016,1147,1171,518.43,466.09,403.78,354.98,8,8,1.89,1.42,2.01,1.98
11/05/2016,1151,1175,519.81,466.93,404.7,355.88,4,4,1.38,0.84,0.92,0.9
12/05/2016,1157,1181,521.63,467.86,406.33,357.5,6,6,1.82,0.93,1.63,1.62
13/05/2016,1170,1190,523.79,473.19,410.18,361.33,13,9,2.16,5.33,3.85,3.83
14/05/2016,1183,1200,525.91,478.22,412.9,363.95,13,10,2.12,5.03,2.72,2.62
15/05/2016,1196,1210,526.88,483.7,416.59,367.56,13,10,0.97,5.48,3.69,3.61
16/05/2016,1209,1219,528.13,489.24,420.04,370.94,13,9,1.25,5.54,3.45,3.38
17/05/2016,1222,1230,529.79,494.46,423.64,374.47,13,11,1.66,5.22,3.6,3.53
18/05/2016,1231,1238,531.26,497.06,426.77,377.56,9,8,1.47,2.6,3.13,3.09
19/05/2016,1236,1245,533.03,497.98,427.85,378.61,5,7,1.77,0.92,1.08,1.05
20/05/2016,1244,1256,536.55,499.43,432.66,382.21,8,11,3.52,1.45,4.81,3.6
21/05/2016,1253,1266,538.97,501.89,435.98,385.47,9,10,2.42,2.46,3.32,3.26
22/05/2016,1258,1272,541.2,502.9,437.42,386.89,5,6,2.23,1.01,1.44,1.42
23/05/2016,1267,1282,543.89,505.53,440.96,390.4,9,10,2.69,2.63,3.54,3.51
24/05/2016,1281,1293,546.48,511.21,444.49,393.85,14,11,2.59,5.68,3.53,3.45
25/05/2016,1293,1304,548.81,515.73,448.22,397.48,12,11,2.33,4.52,3.73,3.63
26/05/2016,1298,1310,550.75,516.8,449.27,398.53,5,6,1.94,1.07,1.05,1.05
27/05/2016,1309,1319,551.83,520.76,453.04,402.26,11,9,1.08,3.96,3.77,3.73
28/05/2016,1321,1333,556.29,523.92,456.64,405.7,12,14,4.46,3.16,3.6,3.44
29/05/2016,1332,1344,558.96,527.92,459.26,408.28,11,11,2.67,4,2.62,2.58
30/05/2016,1343,1353,561.39,531.58,462.16,411.12,11,9,2.43,3.66,2.9,2.84
31/05/2016,1347,1362,565.68,532.47,464.04,411.9,4,9,4.29,0.89,1.88,0.78
01/06/2016,1351,1369,570.08,532.91,465.28,411.95,4,7,4.4,0.44,1.24,0.05
02/06/2016,1354,1377,575.68,533.28,467.33,412.01,3,8,5.6,0.37,2.05,0.06
03/06/2016,1360,1385,578.5,534.31,469.4,414.05,6,8,2.82,1.03,2.07,2.04
04/06/2016,1365,1393,581.06,535.28,470.94,415.59,5,8,2.56,0.97,1.54,1.54
05/06/2016,1370,1403,587.29,536.33,474.22,416.56,5,10,6.23,1.05,3.28,0.97
06/06/2016,1383,1414,589.64,542.27,477.96,420.25,13,11,2.35,5.94,3.74,3.69
07/06/2016,1397,1426,593.07,547.74,481.29,423.51,14,12,3.43,5.47,3.33,3.26
08/06/2016,1406,1435,595.18,549.86,484.43,426.61,9,9,2.11,2.12,3.14,3.1
09/06/2016,1415,1444,597.73,552.46,487.29,429.45,9,9,2.55,2.6,2.86,2.84
10/06/2016,1427,1455,599.89,557.43,489.96,432.07,12,11,2.16,4.97,2.67,2.62
11/06/2016,1437,1466,603.22,559.87,493.06,435.13,10,11,3.33,2.44,3.1,3.06
12/06/2016,1444,1475,606.42,561.06,495.52,437.57,7,9,3.2,1.19,2.46,2.44
13/06/2016,1451,1486,611.59,562.4,498.97,439.75,7,11,5.17,1.34,3.45,2.18
14/06/2016,1457,1493,614.52,563.65,500.94,441.68,6,7,2.93,1.25,1.97,1.93
15/06/2016,1464,1502,617.23,564.99,504.12,444.83,7,9,2.71,1.34,3.18,3.15
16/06/2016,1476,1513,619.79,568.65,507.76,448.4,12,11,2.56,3.66,3.64,3.57
17/06/2016,1482,1521,622.46,569.61,509.53,450.15,6,8,2.67,0.96,1.77,1.75
18/06/2016,1491,1531,625.07,572.16,512.93,453.52,9,10,2.61,2.55,3.4,3.37
19/06/2016,1497,1534,625.12,573.78,514.89,455.48,6,3,0.05,1.62,1.96,1.96
20/06/2016,1505,1537,625.21,577.02,517.73,458.29,8,3,0.09,3.24,2.84,2.81
21/06/2016,1511,1541,625.29,578.52,521,461.52,6,4,0.08,1.5,3.27,3.23
22/06/2016,1519,1545,625.4,581.62,524.59,465.07,8,4,0.11,3.1,3.59,3.55
23/06/2016,1525,1549,625.47,583.08,527.34,467.81,6,4,0.07,1.46,2.75,2.74
24/06/2016,1529,1551,625.65,584.16,528.11,468.57,4,2,0.18,1.08,0.77,0.76
25/06/2016,1539,1555,625.83,588.95,531.77,472.17,10,4,0.18,4.79,3.66,3.6
26/06/2016,1549,1559,625.92,592.64,535.2,475.57,10,4,0.09,3.69,3.43,3.4
27/06/2016,1557,1563,626.02,596.04,538.7,479.01,8,4,0.1,3.4,3.5,3.44
28/06/2016,1567,1568,626.26,600.91,542.37,482.64,10,5,0.24,4.87,3.67,3.63
29/06/2016,1577,1572,626.35,605.34,545.61,485.84,10,4,0.09,4.43,3.24,3.2
30/06/2016,1581,1573,626.41,607.5,546.56,486.78,4,1,0.06,2.16,0.95,0.94
01/07/2016,1590,1578,626.81,610.67,550.16,490.35,9,5,0.4,3.17,3.6,3.57
02/07/2016,1597,1584,628.51,612.78,552.6,492.77,7,6,1.7,2.11,2.44,2.42
03/07/2016,1607,1597,632.35,615.95,556.34,496.42,10,13,3.84,3.17,3.74,3.65
04/07/2016,1619,1608,634.89,619.97,559.93,499.96,12,11,2.54,4.02,3.59,3.54
05/07/2016,1627,1619,638.53,621.96,562.61,502.6,8,11,3.64,1.99,2.68,2.64
06/07/2016,1639,1631,641.47,625.66,566.28,506.21,12,12,2.94,3.7,3.67,3.61
07/07/2016,1651,1643,644.2,629.42,569.46,509.32,12,12,2.73,3.76,3.18,3.11
08/07/2016,1661,1652,646.44,633.73,573.09,512.89,10,9,2.24,4.31,3.63,3.57
09/07/2016,1668,1660,648.97,635.75,576.57,516.33,7,8,2.53,2.02,3.48,3.44
10/07/2016,1676,1668,651.06,638.14,580.08,519.82,8,8,2.09,2.39,3.51,3.49
11/07/2016,1685,1677,653.79,640.66,583.27,522.92,9,9,2.73,2.52,3.19,3.1
12/07/2016,1692,1686,656.69,642.6,586.21,525.78,7,9,2.9,1.94,2.94,2.86
13/07/2016,1700,1695,659.88,644.73,589.72,529.25,8,9,3.19,2.13,3.51,3.47
14/07/2016,1708,1704,662.15,647.12,593.03,532.51,8,9,2.27,2.39,3.31,3.26
15/07/2016,1719,1713,664.89,651.97,596.47,535.9,11,9,2.74,4.85,3.44,3.39
16/07/2016,1726,1722,668.2,653.86,598.4,537.81,7,9,3.31,1.89,1.93,1.91
17/07/2016,1736,1730,670.32,657.72,601.97,541.32,10,8,2.12,3.86,3.57,3.51
18/07/2016,1746,1739,672.78,661.48,605.04,544.39,10,9,2.46,3.76,3.07,3.07
19/07/2016,1759,1751,675.8,667.3,607.83,547.11,13,12,3.02,5.82,2.79,2.72
20/07/2016,1773,1761,677.83,672.35,610.5,549.74,14,10,2.03,5.05,2.67,2.63
21/07/2016,1785,1771,680.04,677,613.05,552.26,12,10,2.21,4.65,2.55,2.52
22/07/2016,1794,1780,682.83,679.87,616.66,555.83,9,9,2.79,2.87,3.61,3.57
23/07/2016,1800,1788,686.06,681.37,618.89,558.06,6,8,3.23,1.5,2.23,2.23
24/07/2016,1811,1797,688.5,685.57,622.39,561.51,11,9,2.44,4.2,3.5,3.45
25/07/2016,1819,1805,690.35,687.89,625.39,564.46,8,8,1.85,2.32,3,2.95
26/07/2016,1829,1813,691.56,692.76,629.15,568.18,10,8,1.21,4.87,3.76,3.72
27/07/2016,1839,1821,693.24,695.96,632.67,571.69,10,8,1.68,3.2,3.52,3.51
28/07/2016,1846,1829,695.34,698.34,635.86,574.8,7,8,2.1,2.38,3.19,3.11
29/07/2016,1853,1836,697.75,700.46,638.72,577.64,7,7,2.41,2.12,2.86,2.84
30/07/2016,1859,1845,701.58,701.7,640.39,579.31,6,9,3.83,1.24,1.67,1.67
31/07/2016,1865,1854,704.79,703.07,643.02,581.95,6,9,3.21,1.37,2.63,2.64
01/08/2016,1875,1862,706.83,707.21,646.65,585.58,10,8,2.04,4.14,3.63,3.63
02/08/2016,1880,1868,709.37,708.81,648.29,587.2,5,6,2.54,1.6,1.64,1.62
03/08/2016,1884,1875,712.24,709.98,649.11,588.06,4,7,2.87,1.17,0.82,0.86
04/08/2016,1893,1884,714.96,712.42,652.82,591.63,9,9,2.72,2.44,3.71,3.57
05/08/2016,1901,1893,717.56,714.81,656.62,595.34,8,9,2.6,2.39,3.8,3.71
06/08/2016,1912,1903,720.05,718.89,660.26,598.91,11,10,2.49,4.08,3.64,3.57
07/08/2016,1926,1915,722.93,723.94,663.59,602.14,14,12,2.88,5.05,3.33,3.23
08/08/2016,1937,1924,725.47,728.62,667.4,605.86,11,9,2.54,4.68,3.81,3.72
09/08/2016,1946,1933,727.92,731.72,670.67,609.05,9,9,2.45,3.1,3.27,3.19
10/08/2016,1956,1943,731.45,735.53,674.21,612.52,10,10,3.53,3.81,3.54,3.47
11/08/2016,1963,1951,733.64,737.39,677.39,615.66,7,8,2.19,1.86,3.18,3.14
12/08/2016,1972,1961,736.03,740.51,680.5,618.7,9,10,2.39,3.12,3.11,3.04
13/08/2016,1985,1972,739.45,745.63,683.67,621.84,13,11,3.42,5.12,3.17,3.14
14/08/2016,1993,1981,742.74,748.13,687.04,625.12,8,9,3.29,2.5,3.37,3.28
15/08/2016,2001,1991,746.03,750.01,690.33,628.32,8,10,3.29,1.88,3.29,3.2
16/08/2016,2013,2002,748.41,755.19,693.28,631.23,12,11,2.38,5.18,2.95,2.91
17/08/2016,2024,2011,750.39,758.67,696.47,634.35,11,9,1.98,3.48,3.19,3.12
18/08/2016,2036,2020,751.34,762.88,699.99,637.78,12,9,0.95,4.21,3.52,3.43
19/08/2016,2043,2027,752.58,764.95,703.11,640.87,7,7,1.24,2.07,3.12,3.09
20/08/2016,2047,2033,754.57,766.08,703.81,641.55,4,6,1.99,1.13,0.7,0.68
21/08/2016,2055,2041,757.04,768.29,707.3,644.97,8,8,2.47,2.21,3.49,3.42
22/08/2016,2061,2051,761.24,770.03,709.75,647.35,6,10,4.2,1.74,2.45,2.38
23/08/2016,2069,2060,764.06,771.86,713.16,650.72,8,9,2.82,1.83,3.41,3.37
24/08/2016,2081,2071,767.37,776.89,715.83,653.35,12,11,3.31,5.03,2.67,2.63
25/08/2016,2092,2080,769.04,780.64,717.93,655.41,11,9,1.67,3.75,2.1,2.06
26/08/2016,2098,2088,771.53,781.95,720.32,657.77,6,8,2.49,1.31,2.39,2.36
27/08/2016,2110,2098,773.35,786.73,722.82,660.22,12,10,1.82,4.78,2.5,2.45
28/08/2016,2116,2104,775.67,788.11,724.93,662.31,6,6,2.32,1.38,2.11,2.09
29/08/2016,2121,2111,777.72,789.44,727.09,664.44,5,7,2.05,1.33,2.16,2.13
30/08/2016,2130,2120,780.14,792.28,729.69,666.98,9,9,2.42,2.84,2.6,2.54
31/08/2016,2141,2130,782.75,797.1,732.51,669.75,11,10,2.61,4.82,2.82,2.77
01/09/2016,2149,2140,786.63,798.46,735.84,672.99,8,10,3.88,1.36,3.33,3.24
02/09/2016,2159,2150,788.64,802.05,739.21,676.32,10,10,2.01,3.59,3.37,3.33
03/09/2016,2163,2156,791.46,803.16,739.71,676.82,4,6,2.82,1.11,0.5,0.5
04/09/2016,2168,2162,793.22,804.37,741.44,678.52,5,6,1.76,1.21,1.73,1.7
05/09/2016,2172,2167,794.79,805.77,742.61,679.69,4,5,1.57,1.4,1.17,1.17
06/09/2016,2176,2173,797.1,806.97,745.14,681.09,4,6,2.31,1.2,2.53,1.4
07/09/2016,2179,2178,799.12,808.09,745.8,681.75,3,5,2.02,1.12,0.66,0.66
08/09/2016,2186,2188,803.18,809.78,749.44,684.19,7,10,4.06,1.69,3.64,2.44
09/09/2016,2196,2196,805.24,813.29,753.24,687.85,10,8,2.06,3.51,3.8,3.66
10/09/2016,2202,2205,808.04,814.51,755.78,690.25,6,9,2.8,1.22,2.54,2.4
11/09/2016,2205,2210,810.56,815.31,755.85,690.31,3,5,2.52,0.8,0.07,0.06
12/09/2016,2216,2220,813.1,819.21,759.69,694.02,11,10,2.54,3.9,3.84,3.71
13/09/2016,2222,2228,815.77,820.5,762.28,696.58,6,8,2.67,1.29,2.59,2.56
14/09/2016,2231,2237,817.89,823.41,765.06,699.31,9,9,2.12,2.91,2.78,2.73
15/09/2016,2240,2247,820.24,826.12,767.99,702.18,9,10,2.35,2.71,2.93,2.87
16/09/2016,2249,2256,822.87,828.49,770.59,704.66,9,9,2.63,2.37,2.6,2.48
17/09/2016,2252,2261,825.42,829.5,771.43,705.48,3,5,2.55,1.01,0.84,0.82
18/09/2016,2255,2269,829.9,830.59,772.91,705.88,3,8,4.48,1.09,1.48,0.4
19/09/2016,2259,2277,833.86,831.81,774.65,707.58,4,8,3.96,1.22,1.74,1.7
20/09/2016,2263,2284,837.16,833.01,776.03,708.96,4,7,3.3,1.2,1.38,1.38
21/09/2016,2266,2289,839.71,834.3,776.81,709.71,3,5,2.55,1.29,0.78,0.75
22/09/2016,2272,2298,843.02,835.56,779.04,711.91,6,9,3.31,1.26,2.23,2.2
23/09/2016,2277,2305,845.75,837.32,781.5,714.33,5,7,2.73,1.76,2.46,2.42
24/09/2016,2287,2316,848.67,840.61,784.15,716.88,10,11,2.92,3.29,2.65,2.55
25/09/2016,2294,2324,850.81,842.96,786.73,719.44,7,8,2.14,2.35,2.58,2.56
26/09/2016,2301,2331,851.77,845.84,789.93,722.55,7,7,0.96,2.88,3.2,3.11
27/09/2016,2305,2337,854.1,847.23,791.24,723.84,4,6,2.33,1.39,1.31,1.29
28/09/2016,2308,2343,856.65,848.41,791.92,724.51,3,6,2.55,1.18,0.68,0.67
29/09/2016,2314,2352,859.5,849.66,794.28,726.82,6,9,2.85,1.25,2.36,2.31
30/09/2016,2319,2360,862.69,850.8,796.78,729.3,5,8,3.19,1.14,2.5,2.48
01/10/2016,2327,2367,864.67,854.1,799.52,731.97,8,7,1.98,3.3,2.74,2.67
02/10/2016,2332,2370,864.78,856.92,801.94,734.34,5,3,0.11,2.82,2.42,2.37
03/10/2016,2340,2374,864.88,861.33,805.51,737.85,8,4,0.1,4.41,3.57,3.51
04/10/2016,2349,2379,864.93,866.3,808.12,740.44,9,5,0.05,4.97,2.61,2.59
05/10/2016,2356,2384,864.98,870.31,811.18,743.45,7,5,0.05,4.01,3.06,3.01
06/10/2016,2365,2388,865.05,875.23,813.64,745.86,9,4,0.07,4.92,2.46,2.41
07/10/2016,2370,2391,865.15,878.11,816.66,748.81,5,3,0.1,2.88,3.02,2.95
08/10/2016,2373,2395,867.24,879.61,817.43,749.57,3,4,2.09,1.5,0.77,0.76
09/10/2016,2376,2402,872.42,880.67,819.75,750.67,3,7,5.18,1.06,2.32,1.1
10/10/2016,2381,2408,876.22,881.7,821.76,752.64,5,6,3.8,1.03,2.01,1.97
11/10/2016,2387,2415,879.25,883.24,824.72,755.5,6,7,3.03,1.54,2.96,2.86